Simultaneous Nadir Overpasses (SNOs) Predictions

Prediction of SNOs between LANDSAT-8 and METOP-A Satellite Orbit:

Table of predicted SNOs for the next 14.0 days since TLE Epoch: 10/18/2014
Index Date (LANDSAT-8) Time (LANDSAT-8) Lat,Lon (LANDSAT-8) SZA (LANDSAT-8 ) Date (METOP-A) Time (METOP-A) Lat,Lon (METOP-A) SZA (METOP-A ) Distance(km) Time Diff (sec)
1 10/18/2014 20:24:12 -81.11, 93.63 86.73 10/18/2014 20:24:00 -81.11, 93.61 86.74 0.35 12
2 10/18/2014 21:13:37 81.14, -98.30 93.35 10/18/2014 21:14:39 81.14, -98.25 93.39 0.91 62
3 10/21/2014 15:58:27 -81.11, 160.00 85.72 10/21/2014 15:58:21 -81.10, 159.90 85.74 1.85 6
4 10/21/2014 16:47:52 81.13, -31.94 94.36 10/21/2014 16:49:00 81.13, -32.00 94.38 1.06 68
5 10/24/2014 10:43:14 81.09, 58.52 95.22 10/24/2014 10:42:01 81.09, 58.61 95.20 1.55 73
6
